CZ-5B R/B (48275 NORAD) Tracking and Keplerian Element Data

This shows tracking and keplerian element data for the satellite.

Feedback or suggestion? Click here.




ElementValue
Catalog48275
NameCZ-5B R/B
Epoch Orbit154
Epoch Day128.8570845
Epoch Year2021
RAAN159.7603
Inclination41.4573
Eccentricity0.0029099
Argument of Perigee247.8635
Mean Anonmoly292.7779
Mean Motion16.44362448
Decay Rate0.10495065
L11 48275U 21035B 21128.85708450 .10495065 80719-5 19011-3 0 9993
L22 48275 41.4573 159.7603 0029099 247.8635 292.7779 16.44362448 1542



Live tracking and technical data element details for CZ-5B R/B (NORAD 48275). CZ-5B R/B can be tracked NOW for your location showing map with azimuth and elevation plus other details from your city location.







IsCatalogInMostPopularTable: catalog: 48275, numindb: 4829
Update: records affected: 1



GetName: 48275 CZ-5B R/B

Hit Count: updated at: Sun, 04 Dec 2022 22:45:52 GMT